Weather in Geraldton

Australia     28°43′58″S   114°40′20″E
temp.,
°C
wind,
m/s
gust,
m/s
humid.,
%
clouds,
%
prec.,
mm/h
press.,
hPa
HPBL,
m
15 may, sat
sat1523:00+24ene7154082 0.0 1018405
02:00+23ene81641100 0.0 1018463
05:00+22ne8164015 0.0 1018436
08:00+21ne816405 0.0 1019451
11:00+27ne911295 0.0 1019756
14:00+29nne55255 0.0 10171620
17:00+27ene35295 0.0 1017152
20:00+23ene373680 0.0 1019100
16 may, sun
sun1623:00+21ene4113975 0.0 1019239
02:00+21ene5123881 0.0 1018287
05:00+20ne6134043 0.0 1018308
08:00+20ne614405 0.0 1019385
11:00+27nne892890 0.0 1018885
14:00+29n552495 0.0 10151878
17:00+26nw223476 0.0 101543
20:00+22sse1152100 0.0 101711
17 may, mon
mon1723:00+21ne1149100 0.0 101712
02:00+21ne364195 0.0 1015105
05:00+20nne374389 0.0 1015124
08:00+20nne384350 0.0 1016201
11:00+27nnw5727100 0.0 10161075
14:00+28wnw5528100 0.0 10141186
17:00+24w3449100 0.0 1015214
20:00+20sw117895 0.0 101611
18 may, tue
tue1823:00+19sse118899 0.0 101611
02:00+19ne1189100 0.0 101611
05:00+19n0086100 0.0 101611
08:00+19ene1179100 0.0 101723
11:00+24wsw2255100 0.1 1017895
14:00+25sw4349100 0.1 10151251
17:00+22ssw3468100 0.0 1016527
20:00+19s2487100 0.5 101886
19 may, wed
wed1923:00+18sse36915 0.0 1018130
02:00+17se23935 0.0 101852
05:00+16se22945 0.0 101938
08:00+17ese13832 0.0 102096
11:00+24sse33510 0.0 1020762
14:00+25ssw54450 0.0 10181075
17:00+22s57610 0.0 1019387
20:00+19s49800 0.0 1020290